Weather History for Marysville, OH

Change the Weather History Date:

Thursday, June 27, 2013

  Actual Average (KDLZ) Record (KDLZ)
Temperature  
Mean Temperature 75 °F -  
Max Temperature 84 °F 83 °F 99 °F (1944)
Min Temperature 66 °F 58 °F 44 °F (1988)
Cooling Degree Days 10    
Growing Degree Days 25 (Base 50)    
Moisture  
Dew Point 65 °F    
Average Humidity 76    
Maximum Humidity 94    
Minimum Humidity 51    
Precipitation  
Precipitation 0.00 in - - ()
Sea Level Pressure  
Sea Level Pressure 29.75 in    
Wind  
Wind Speed 7 mph (West)    
Max Wind Speed 18 mph    
Max Gust Speed 24 mph    
Visibility 8 miles    
Events      
Averages and records for this station are not official NWS values.
T = Trace of Precipitation, MM = Missing Value Source: NWS Daily Summary

Daily Weather History Graph

Daily Weather History Graph

Search for Another Location

Airport:

Trip Planner

Search our weather history database for the weather conditions in past years. The results will help you decide how hot, cold, wet, or windy it might be!

Date:

Astronomy

Jun. 27, 2013 Rise Set
Actual Time 6:05 AM EDT 9:07 PM EDT
Civil Twilight 5:32 AM EDT 9:40 PM EDT
Nautical Twilight 4:51 AM EDT 10:21 PM EDT
Astronomical Twilight 4:02 AM EDT 11:10 PM EDT
Moon No Moon Rise 11:06 AM EDT (6/27)
Length of Visible Light 16h 07m
Length of Day
15h 01m
Waning Gibbous, 76% of the Moon is Illuminated
Jun 27
Waning Gibbous
Jun 30
Last Quarter
Jul 8
New
Jul 15
First Quarter
Jul 22
Full

Hourly Weather History & Observations

Time (EDT) Temp. Heat Index Dew Point Humidity Pressure Visibility Wind Dir Wind Speed Gust Speed Precip Events Conditions
12:05 AM 69.8 °F - 64.4 °F 83% 29.82 in 10.0 mi South 9.2 mph - N/A   Mostly Cloudy
12:25 AM 68.0 °F - 64.4 °F 88% 29.82 in 10.0 mi South 8.1 mph - N/A   Overcast
12:45 AM 68.0 °F - 64.4 °F 88% 29.82 in 10.0 mi South 8.1 mph - N/A   Overcast
1:05 AM 68.0 °F - 64.4 °F 88% 29.81 in 10.0 mi South 5.8 mph - N/A   Overcast
1:25 AM 68.0 °F - 66.2 °F 94% 29.80 in 10.0 mi SSW 8.1 mph - N/A   Overcast
1:45 AM 68.0 °F - 66.2 °F 94% 29.79 in 10.0 mi SSW 6.9 mph - N/A   Overcast
2:05 AM 68.0 °F - 66.2 °F 94% 29.78 in 10.0 mi SSW 5.8 mph - N/A   Overcast
2:25 AM 68.0 °F - 66.2 °F 94% 29.78 in 7.0 mi SSW 4.6 mph - N/A   Overcast
2:45 AM 68.0 °F - 66.2 °F 94% 29.78 in 7.0 mi SW 4.6 mph - N/A   Overcast
3:05 AM 68.0 °F - 66.2 °F 94% 29.78 in 7.0 mi SSW 3.5 mph - N/A   Overcast
3:25 AM 68.0 °F - 66.2 °F 94% 29.78 in 5.0 mi SW 3.5 mph - N/A   Overcast
3:45 AM 68.0 °F - 66.2 °F 94% 29.77 in 5.0 mi Calm Calm - N/A   Overcast
4:05 AM 68.0 °F - 66.2 °F 94% 29.77 in 5.0 mi Calm Calm - N/A   Overcast
4:25 AM 68.0 °F - 66.2 °F 94% 29.77 in 4.0 mi South 3.5 mph - N/A   Overcast
4:45 AM 68.0 °F - 66.2 °F 94% 29.77 in 4.0 mi SSW 3.5 mph - N/A   Overcast
5:05 AM 68.0 °F - 66.2 °F 94% 29.77 in 4.0 mi SSW 4.6 mph - N/A   Overcast
5:25 AM 68.0 °F - 66.2 °F 94% 29.77 in 5.0 mi SW 4.6 mph - N/A   Overcast
5:45 AM 68.0 °F - 64.4 °F 88% 29.77 in 7.0 mi SW 6.9 mph - N/A   Overcast
6:05 AM 68.0 °F - 64.4 °F 88% 29.77 in 7.0 mi SW 6.9 mph - N/A   Overcast
6:25 AM 68.0 °F - 64.4 °F 88% 29.77 in 7.0 mi SW 5.8 mph - N/A   Overcast
6:45 AM 68.0 °F - 64.4 °F 88% 29.77 in 5.0 mi SSW 5.8 mph - N/A   Overcast
7:05 AM 68.0 °F - 64.4 °F 88% 29.77 in 2.5 mi SSW 4.6 mph - N/A   Overcast
7:25 AM 66.2 °F - 64.4 °F 94% 29.77 in 2.5 mi SSW 5.8 mph - N/A   Overcast
7:45 AM 66.2 °F - 64.4 °F 94% 29.78 in 1.2 mi SW 4.6 mph - N/A   Overcast
8:05 AM 66.2 °F - 64.4 °F 94% 29.77 in 1.0 mi SW 3.5 mph - N/A   Overcast
8:25 AM 68.0 °F - 66.2 °F 94% 29.77 in 0.8 mi WSW 4.6 mph - N/A   Overcast
8:45 AM 68.0 °F - 66.2 °F 94% 29.77 in 1.2 mi WSW 8.1 mph - N/A   Overcast
9:05 AM 68.0 °F - 66.2 °F 94% 29.77 in 2.5 mi WSW 5.8 mph - N/A   Overcast
9:25 AM 69.8 °F - 66.2 °F 88% 29.77 in 3.0 mi West 5.8 mph - N/A   Overcast
9:45 AM 69.8 °F - 68.0 °F 94% 29.77 in 4.0 mi West 4.6 mph - N/A   Overcast
10:05 AM 71.6 °F - 68.0 °F 88% 29.77 in 7.0 mi WSW 8.1 mph - N/A   Overcast
10:25 AM 69.8 °F - 66.2 °F 88% 29.77 in 10.0 mi WSW 6.9 mph - N/A   Overcast
10:45 AM 71.6 °F - 68.0 °F 88% 29.77 in 7.0 mi West 8.1 mph - N/A   Overcast
11:05 AM 71.6 °F - 68.0 °F 88% 29.77 in 5.0 mi WSW 4.6 mph - N/A   Overcast
11:25 AM 71.6 °F - 68.0 °F 88% 29.77 in 7.0 mi WSW 5.8 mph - N/A   Overcast
11:45 AM 73.4 °F - 68.0 °F 83% 29.77 in 7.0 mi West 5.8 mph - N/A   Overcast
12:05 PM 73.4 °F - 68.0 °F 83% 29.77 in 7.0 mi West 6.9 mph - N/A   Overcast
12:25 PM 75.2 °F - 68.0 °F 78% 29.77 in 7.0 mi West 5.8 mph - N/A   Overcast
12:45 PM 77.0 °F - 68.0 °F 74% 29.77 in 10.0 mi NW 8.1 mph - N/A   Mostly Cloudy
1:05 PM 80.6 °F 82.7 °F 66.2 °F 61% 29.76 in 10.0 mi WNW 10.4 mph - N/A   Scattered Clouds
1:25 PM 78.8 °F - 66.2 °F 65% 29.76 in 10.0 mi NW 8.1 mph - N/A   Mostly Cloudy
1:45 PM 82.4 °F 84.6 °F 66.2 °F 58% 29.76 in 10.0 mi NNW 8.1 mph - N/A   Overcast
2:05 PM 82.4 °F 84.6 °F 66.2 °F 58% 29.75 in 10.0 mi NW 9.2 mph - N/A   Mostly Cloudy
2:25 PM 80.6 °F 82.3 °F 64.4 °F 58% 29.75 in 10.0 mi NW 9.2 mph - N/A   Overcast
2:45 PM 80.6 °F 82.7 °F 66.2 °F 61% 29.75 in 10.0 mi NW 8.1 mph - N/A   Overcast
3:05 PM 82.4 °F 84.6 °F 66.2 °F 58% 29.75 in 10.0 mi NNW 6.9 mph - N/A   Mostly Cloudy
3:25 PM 84.2 °F 85.6 °F 64.4 °F 51% 29.75 in 10.0 mi WNW 12.7 mph 18.4 mph N/A   Overcast
3:45 PM 84.2 °F 85.6 °F 64.4 °F 51% 29.75 in 10.0 mi NNW 9.2 mph - N/A   Overcast
4:05 PM 82.4 °F 83.9 °F 64.4 °F 54% 29.74 in 10.0 mi NW 6.9 mph - N/A   Overcast
4:25 PM 84.2 °F 85.6 °F 64.4 °F 51% 29.73 in 10.0 mi NW 11.5 mph 18.4 mph N/A   Scattered Clouds
4:45 PM 84.2 °F 85.6 °F 64.4 °F 51% 29.72 in 10.0 mi NW 10.4 mph - N/A   Scattered Clouds
5:05 PM 84.2 °F 86.6 °F 66.2 °F 55% 29.72 in 10.0 mi WNW 10.4 mph - N/A   Scattered Clouds
5:25 PM 84.2 °F 85.6 °F 64.4 °F 51% 29.72 in 10.0 mi WNW 15.0 mph 21.9 mph N/A   Mostly Cloudy
5:45 PM 84.2 °F 85.6 °F 64.4 °F 51% 29.72 in 10.0 mi West 12.7 mph - N/A   Clear
6:05 PM 84.2 °F 85.6 °F 64.4 °F 51% 29.72 in 10.0 mi West 15.0 mph 20.7 mph N/A   Scattered Clouds
6:25 PM 84.2 °F 85.6 °F 64.4 °F 51% 29.72 in 10.0 mi NW 8.1 mph 17.3 mph N/A   Scattered Clouds
6:45 PM 82.4 °F 83.9 °F 64.4 °F 54% 29.72 in 10.0 mi WNW 18.4 mph 24.2 mph N/A   Scattered Clouds
7:05 PM 80.6 °F 82.3 °F 64.4 °F 58% 29.72 in 10.0 mi WNW 11.5 mph - N/A   Scattered Clouds
7:25 PM 80.6 °F 82.3 °F 64.4 °F 58% 29.72 in 10.0 mi WNW 12.7 mph 17.3 mph N/A   Clear
7:45 PM 82.4 °F 83.9 °F 64.4 °F 54% 29.72 in 10.0 mi WNW 13.8 mph 19.6 mph N/A   Scattered Clouds
8:05 PM 80.6 °F 81.5 °F 60.8 °F 51% 29.71 in 10.0 mi NW 12.7 mph 17.3 mph N/A   Scattered Clouds
8:25 PM 78.8 °F - 60.8 °F 54% 29.72 in 10.0 mi NNW 4.6 mph - N/A   Scattered Clouds
8:45 PM 77.0 °F - 62.6 °F 61% 29.72 in 10.0 mi WNW 4.6 mph - N/A   Clear
9:05 PM 75.2 °F - 64.4 °F 69% 29.72 in 10.0 mi West 8.1 mph - N/A   Clear
9:25 PM 75.2 °F - 64.4 °F 69% 29.73 in 10.0 mi WNW 4.6 mph - N/A   Clear
9:45 PM 75.2 °F - 64.4 °F 69% 29.72 in 10.0 mi West 5.8 mph - N/A   Clear
10:05 PM 75.2 °F - 64.4 °F 69% 29.72 in 10.0 mi West 4.6 mph - N/A   Clear
10:25 PM 75.2 °F - 66.2 °F 73% 29.71 in 10.0 mi West 5.8 mph - N/A   Clear
10:45 PM 75.2 °F - 66.2 °F 73% 29.72 in 10.0 mi West 6.9 mph - N/A   Clear
11:05 PM 75.2 °F - 66.2 °F 73% 29.70 in 10.0 mi West 3.5 mph - N/A   Scattered Clouds
11:25 PM 73.4 °F - 66.2 °F 78% 29.70 in 10.0 mi NNE 6.9 mph - N/A   Mostly Cloudy
11:45 PM 73.4 °F - 64.4 °F 73% 29.70 in 10.0 mi NNE 4.6 mph - N/A   Mostly Cloudy